Southern Pines, NC

4:42 PM EST on November 12, 2019 (GMT -0500)
Moore County

Weather History for KSOP - October, 2019

Change the Weather History Date:

Monday, October 21, 2019

  Actual Average Record
Temperature  
Mean Temperature 62 °F -  
Max Temperature 75 °F 67 °F 82 °F (2005)
Min Temperature 51 °F 46 °F 30 °F (2015)
Degree Days  
Heating Degree Days 3    
Growing Degree Days 12 (Base 50)    
Moisture  
Dew Point 57 °F    
Average Humidity 84    
Maximum Humidity 100    
Minimum Humidity 59    
Precipitation  
Precipitation 0.00 in - - ()
Sea Level Pressure  
Sea Level Pressure 30.06 in    
Wind  
Wind Speed 2 mph (East)    
Max Wind Speed 9 mph    
Max Gust Speed -    
Visibility 9 miles    
Events      
Averages and records for this station are not official NWS values.
T = Trace of Precipitation, MM = Missing Value Source: NWS Daily Summary

Daily Weather History Graph

Daily Weather History Graph

Search for Another Location

Airport or City:

Astronomy

Oct. 21, 2019 Rise Set
Actual Time 7:28 AM EDT 6:35 PM EDT
Civil Twilight 7:02 AM EDT 7:00 PM EDT
Nautical Twilight 6:33 AM EDT 7:30 PM EDT
Astronomical Twilight 6:03 AM EDT 7:59 PM EDT
Moon No Moon Rise 2:37 PM EDT (10/21)
Length of Visible Light 11h 58m
Length of Day
11h 06m
Waning Gibbous, 48% of the Moon is Illuminated
Oct 21
Waning Gibbous
Oct 27
New
Nov 4
First Quarter
Nov 12
Full
Nov 19
Last Quarter

Hourly Weather History & Observations

Time (EDT) Temp. Dew Point Humidity Pressure Visibility Wind Dir Wind Speed Gust Speed Precip Events Conditions
12:56 AM 57.9 °F 57.0 °F 97% 30.00 in 10.0 mi Calm Calm - N/A   Clear
1:56 AM 55.0 °F 54.0 °F 96% 30.01 in 9.0 mi Calm Calm - N/A   Clear
2:56 AM 53.1 °F 53.1 °F 100% 30.02 in 10.0 mi NNE 3.5 mph - N/A   Clear
3:56 AM 53.1 °F 53.1 °F 100% 30.03 in 10.0 mi Calm Calm - N/A   Clear
4:56 AM 52.0 °F 52.0 °F 100% 30.04 in 10.0 mi Calm Calm - N/A   Clear
5:56 AM 51.1 °F 51.1 °F 100% 30.06 in 10.0 mi Calm Calm - N/A   Clear
6:56 AM 51.1 °F 51.1 °F 100% 30.06 in 10.0 mi Calm Calm - N/A   Clear
7:13 AM 51.8 °F 51.8 °F 100% 30.05 in 1.8 mi Calm Calm - N/A   Clear
7:24 AM 51.8 °F 50.0 °F 94% 30.05 in 3.0 mi NNE 3.5 mph - N/A   Clear
7:56 AM 52.0 °F 51.1 °F 97% 30.07 in 10.0 mi Calm Calm - N/A   Clear
8:56 AM 57.0 °F 55.0 °F 93% 30.10 in 10.0 mi Calm Calm - N/A   Clear
9:56 AM 62.1 °F 55.9 °F 80% 30.11 in 10.0 mi ENE 8.1 mph - N/A   Clear
10:56 AM 66.0 °F 57.0 °F 73% 30.10 in 10.0 mi East 9.2 mph - N/A   Clear
11:56 AM 69.1 °F 57.9 °F 68% 30.11 in 10.0 mi Variable 6.9 mph - N/A   Clear
12:56 PM 71.1 °F 57.9 °F 63% 30.10 in 10.0 mi Variable 4.6 mph - N/A   Clear
1:56 PM 72.0 °F 57.9 °F 61% 30.07 in 10.0 mi North 3.5 mph - N/A   Partly Cloudy
2:56 PM 73.9 °F 59.0 °F 59% 30.05 in 10.0 mi Variable 3.5 mph - N/A   Scattered Clouds
3:56 PM 73.9 °F 60.1 °F 62% 30.05 in 10.0 mi ESE 3.5 mph - N/A   Overcast
4:56 PM 73.0 °F 60.1 °F 64% 30.06 in 10.0 mi ESE 3.5 mph - N/A   Overcast
5:56 PM 71.1 °F 61.0 °F 70% 30.05 in 10.0 mi East 4.6 mph - N/A   Clear
6:56 PM 68.0 °F 61.0 °F 78% 30.06 in 10.0 mi ESE 3.5 mph - N/A   Mostly Cloudy
7:56 PM 66.0 °F 61.0 °F 84% 30.06 in 10.0 mi ESE 5.8 mph - N/A   Mostly Cloudy
8:56 PM 64.9 °F 60.1 °F 84% 30.06 in 10.0 mi East 3.5 mph - N/A   Clear
9:56 PM 64.0 °F 60.1 °F 87% 30.07 in 10.0 mi East 4.6 mph - N/A   Overcast
11:29 PM 64.4 °F 60.8 °F 88% 30.07 in 10.0 mi ESE 5.8 mph - N/A   Overcast
11:56 PM 64.0 °F 61.0 °F 90% 30.08 in 10.0 mi ESE 5.8 mph - N/A   Overcast